[[{"header":{"parameterUnit":"m.s-1","parameterCategory":2,"la1":30.2991,"la2":30.254,"lo1":-89.0895,"lo2":-89.0444,"dy":0.0017,"dx":0.0017,"nx":28,"ny":28,"refTime":"2024-08-03T03:00:00:Z","depth":"0","parameterNumber":2,"parameterNumberName":"U-component_of_CURRENTS"},"data":[0,0,0,0,0,0,0,0,0,0,0,0,0,0,0,0,0,0,0,0,0,0,0,0,0,0,0,0,0,0,0,0,0,0,0,0,0,0,0,0,0,0,0,0,0,0,0,0,0,0,0,0,0,0,0,0,0,0,0.2216,0.2216,0,0.2207,0.2206,0.2206,0.22,0.22,0.2201,0.2201,0.217,0.2169,0.2168,0,0,0,0,0,0,0,0,0,0,0,0,0,0.2264,0.2262,0.2216,0.2216,0.2216,0.2207,0.2206,0.2206,0.22,0.22,0.2201,0.2201,0.217,0.2169,0.2168,0,0,0,0,0,0,0,0,0,0,0,0,0,0.2245,0.2262,0.2216,0.2214,0.2214,0.2207,0.2206,0.2206,0.22,0.22,0.2201,0.2201,0.217,0.2169,0.2168,0.2153,0,0,0.2163,0.2162,0,0,0,0,0,0,0,0,0.2246,0.2243,0.2214,0.2214,0.2214,0.2207,0.2212,0.2188,0.22,0.2203,0.2201,0.2201,0.2182,0.2179,0.2174,0.2151,0.215,0.2163,0.2162,0.2161,0.2161,0,0,0,0,0,0,0,0.2247,0.2244,0.221,0.2214,0.2214,0.2226,0.2223,0.2208,0.2188,0.2202,0.2203,0.2205,0.2181,0.2175,0.2173,0.2149,0.2163,0.2162,0.2161,0.216,0.2165,0.2166,0,0,0,0,0,0,0.2251,0.2244,0.221,0.221,0.2234,0.2225,0.2221,0.2207,0.2189,0.2187,0.2205,0.2205,0.2178,0.2175,0.2172,0.2195,0.2161,0.216,0.2159,0.2164,0.2165,0.2167,0,0,0,0,0,0,0.2252,0.2247,0.221,0.223,0.2227,0.2224,0.2207,0.2207,0.2201,0.2192,0.2189,0.2201,0.2178,0.2174,0.2167,0.2192,0.2159,0.2158,0.2163,0.2165,0.2166,0.2214,0,0,0,0,0,0,0.2253,0.2247,0.2234,0.223,0.2226,0.221,0.2207,0.2206,0.2203,0.2203,0.2187,0.2184,0.2178,0.2169,0.2165,0.2189,0.2157,0.2162,0.2164,0.2166,0.2212,0.2217,0.2222,0,0,0,0,0,0.2254,0.2239,0.2233,0.223,0.2209,0.221,0.2209,0.2207,0.2203,0.2202,0.2195,0.2185,0.218,0.2168,0.2164,0.2188,0.2161,0.2163,0.2165,0.2209,0.2216,0.2222,0,0,0,0,0,0,0.2245,0.2237,0.2231,0.221,0.2212,0.221,0.2211,0.2205,0.2198,0.2199,0.2186,0.2183,0.2194,0.2179,0.2167,0.2197,0.2173,0.2175,0.2208,0.2215,0.222,0.2207,0.2155,0,0,0,0,0,0.2238,0.2227,0.2225,0.2208,0.2213,0.221,0.2208,0.2209,0.2205,0.2202,0.2194,0.2191,0.22,0.2196,0.2197,0.2198,0.2197,0.2215,0.2221,0.2225,0.2213,0.226,0.2269,0.2174,0.2174,0.2174,0,0,0.2235,0.2224,0.2221,0.2207,0.2209,0.2213,0.2209,0.2212,0.2218,0.2199,0.2202,0.2208,0.2205,0.2221,0.2225,0.2209,0.225,0.2228,0.2232,0.2217,0.2263,0.2273,0.2281,0.2176,0.2176,0.2175,0,0,0.2224,0.2212,0.2204,0.221,0.2214,0.2214,0.2215,0.2218,0.2225,0.2229,0.223,0.2244,0.2242,0.2252,0.2256,0.2286,0.2282,0.2296,0.2306,0.2353,0.2361,0.2368,0.2371,0.2378,0.2294,0.2294,0.2294,0,0.2217,0.2203,0.2203,0.2204,0.2214,0.2215,0.2222,0.2227,0.2227,0.2235,0.2238,0.226,0.2259,0.2282,0.23,0.2299,0.2312,0.2282,0.2361,0.2368,0.2374,0.2376,0.2383,0.2297,0.2296,0.2296,0.2296,0,0.2206,0.2203,0.2204,0.2203,0.2212,0.2221,0.2237,0.2244,0.2254,0.2261,0.2291,0.23,0.231,0.2327,0.2321,0.2368,0.2357,0.2369,0.2344,0.2387,0.2385,0.2392,0.23,0.2299,0.2299,0.2298,0,0,0.2169,0.2191,0.2192,0.2207,0.2218,0.2229,0.2243,0.2259,0.2274,0.2291,0.232,0.2342,0.2348,0.2352,0.236,0.2395,0.2454,0.24,0.2401,0.2401,0.2534,0.2337,0.2325,0.2492,0.2493,0.2495,0.2511,0,0.216,0.2164,0.2181,0.2203,0.2213,0.2238,0.2253,0.2271,0.2291,0.232,0.2346,0.2377,0.2359,0.2381,0.2412,0.2456,0.2475,0.2445,0.2492,0.2492,0.2312,0.2327,0.2176,0.2162,0.2518,0.2519,0.2519,0,0.2144,0.2149,0.2163,0.2212,0.2223,0.2237,0.2272,0.2293,0.2328,0.2346,0.2371,0.2395,0.2438,0.2435,0.2497,0.2485,0.25,0.2526,0.2528,0.2326,0.2306,0.2178,0.216,0.2122,0.2529,0.2529,0.2528,0,0.2116,0.2148,0.216,0.2175,0.2216,0.2237,0.2265,0.2294,0.2322,0.2369,0.2391,0.2436,0.2469,0.2516,0.2524,0.2539,0.2586,0.262,0.2445,0.2432,0.2296,0.2265,0.2238,0.2657,0.2657,0.2657,0.2657,0,0.2102,0.2118,0.2152,0.2162,0.2191,0.2232,0.2273,0.2293,0.2342,0.2366,0.2403,0.2427,0.2498,0.252,0.2542,0.2476,0.2593,0.2428,0.2421,0.2303,0.2274,0.2226,0.221,0.2657,0.2657,0.2657,0.2657,0,0.2078,0.2094,0.2113,0.2156,0.2177,0.2199,0.2279,0.2309,0.2342,0.2377,0.2398,0.2445,0.244,0.2452,0.2516,0.2462,0.2357,0.2399,0.2216,0.2182,0.1948,0.1938,0.1782,0.1753,0.2223,0.2218,0.2214,0,0.2066,0.2069,0.2104,0.2119,0.2144,0.2194,0.223,0.2292,0.2327,0.2372,0.2391,0.239,0.2344,0.2306,0.2223,0.2159,0.2163,0.1985,0.1967,0.1881,0.1871,0.1832,0.1821,0.1829,0.1822,0.1816,0.1811,0,0.2047,0.2055,0.2074,0.2091,0.2126,0.218,0.2241,0.2258,0.2317,0.2319,0.23,0.2266,0.2154,0.1998,0.187,0.1827,0.1845,0.1859,0.1861,0.1598,0.1471,0.1456,0.1858,0.1761,0.1766,0.177,0.1773,0.1775,0.2032,0.2035,0.2052,0.2066,0.2101,0.2136,0.2138,0.2181,0.2187,0.2114,0.2178,0.2015,0.1851,0.1623,0.1571,0.1353,0.1442,0.131,0.1321,0.1303,0.1202,0.143,0.1258,0.126,0.1262,0.1264,0.1265,0,0.2006,0.2015,0.2033,0.2033,0.2034,0.2084,0.2117,0.2073,0.2001,0.1922,0.1843,0.1583,0.1383,0.124,0.1,0.0886,0.0897,0.0845,0.0834,0.0871,0.1158,0.1067,0.0735,0.0735,0.0735,0.0735,0.0735,0.0735,0.1991,0.1987,0.1987,0.1953,0.1957,0.192,0.1906,0.182,0.1736,0.148,0.1271,0.1188,0.1045,0.0803,0.0618,0.0585,0.0596,0.0438,0.0559,0.0829,0.0878,0.0924,0.0839,0.0464,0.0464,0.0244,0.0242,0.0241]},{"header":{"parameterUnit":"m.s-1","parameterCategory":2,"la1":30.2991,"la2":30.254,"lo1":-89.0895,"lo2":-89.0444,"dy":0.0017,"dx":0.0017,"nx":28,"ny":28,"refTime":"2024-08-03T03:00:00:Z","depth":"0","parameterNumber":3,"parameterNumberName":"V-component_of_CURRENTS"},"data":[0,0,0,0,0,0,0,0,0,0,0,0,0,0,0,0,0,0,0,0,0,0,0,0,0,0,0,0,0,0,0,0,0,0,0,0,0,0,0,0,0,0,0,0,0,0,0,0,0,0,0,0,0,0,0,0,0,0,0.033,0.0331,0,0.0364,0.0364,0.0365,0.0368,0.0368,0.0367,0.0367,0.0358,0.0358,0.0357,0,0,0,0,0,0,0,0,0,0,0,0,0,0.0273,0.0274,0.033,0.0331,0.0331,0.0364,0.0364,0.0365,0.0368,0.0368,0.0367,0.0367,0.0358,0.0358,0.0357,0,0,0,0,0,0,0,0,0,0,0,0,0,0.03,0.0274,0.033,0.0338,0.0339,0.0364,0.0364,0.0365,0.0368,0.0368,0.0367,0.0367,0.0358,0.0358,0.0357,0.0363,0,0,0.0357,0.0357,0,0,0,0,0,0,0,0,0.0299,0.0302,0.0336,0.0337,0.0339,0.0363,0.0341,0.0363,0.0368,0.0355,0.0367,0.0367,0.0357,0.0357,0.0362,0.0363,0.0362,0.0357,0.0357,0.0357,0.0357,0,0,0,0,0,0,0,0.0297,0.0301,0.0342,0.0337,0.0338,0.0342,0.0345,0.0345,0.0355,0.0356,0.0357,0.0364,0.0357,0.0362,0.0362,0.0362,0.0357,0.0357,0.0357,0.0357,0.0381,0.0381,0,0,0,0,0,0,0.0296,0.0299,0.0341,0.0343,0.0319,0.0343,0.0347,0.0354,0.0356,0.0357,0.0364,0.0364,0.0362,0.0362,0.0361,0.0382,0.0357,0.0357,0.0357,0.038,0.0381,0.0382,0,0,0,0,0,0,0.0295,0.0299,0.034,0.0323,0.0328,0.0345,0.0353,0.0355,0.0361,0.0363,0.0362,0.0368,0.0362,0.0361,0.0368,0.0381,0.0357,0.0357,0.0379,0.038,0.0381,0.0414,0,0,0,0,0,0,0.0293,0.0299,0.0303,0.0323,0.0329,0.0356,0.0353,0.0356,0.0366,0.0366,0.0366,0.0365,0.0362,0.0368,0.0367,0.038,0.0357,0.0378,0.038,0.0381,0.0413,0.0417,0.042,0,0,0,0,0,0.0291,0.03,0.0303,0.0308,0.0335,0.0357,0.0361,0.037,0.0367,0.0373,0.0375,0.0365,0.0376,0.0368,0.0368,0.0381,0.0378,0.0379,0.0381,0.0411,0.0416,0.042,0,0,0,0,0,0,0.0279,0.0302,0.0305,0.0321,0.0338,0.0358,0.0367,0.0371,0.0378,0.0376,0.0373,0.0372,0.0384,0.0377,0.0369,0.0392,0.0376,0.0377,0.0399,0.0403,0.0407,0.0419,0.0357,0,0,0,0,0,0.0278,0.029,0.0312,0.0325,0.0334,0.0349,0.0359,0.0365,0.0376,0.0379,0.0382,0.0384,0.0391,0.0392,0.0396,0.0406,0.0413,0.0414,0.0418,0.0421,0.0432,0.0471,0.048,0.0387,0.0387,0.0387,0,0,0.0277,0.0292,0.0298,0.0323,0.0336,0.0356,0.0354,0.0371,0.0386,0.0376,0.0395,0.0396,0.0397,0.0412,0.0416,0.0407,0.0447,0.0423,0.0426,0.0435,0.0474,0.0483,0.0491,0.0388,0.0388,0.0387,0,0,0.0287,0.0294,0.031,0.0327,0.035,0.036,0.0365,0.0387,0.0394,0.0412,0.0412,0.0426,0.043,0.0442,0.0445,0.0471,0.0467,0.0467,0.0495,0.0533,0.0541,0.0549,0.0552,0.0559,0.0467,0.0468,0.0468,0,0.0283,0.031,0.0318,0.0341,0.0357,0.0363,0.0386,0.0396,0.0417,0.0431,0.042,0.0455,0.0449,0.0482,0.0488,0.0481,0.0491,0.0477,0.0539,0.0547,0.0554,0.0555,0.0563,0.0469,0.0469,0.0469,0.0469,0,0.0311,0.0332,0.0344,0.0373,0.0388,0.0408,0.0425,0.0438,0.0444,0.0462,0.0494,0.0498,0.0523,0.0519,0.0509,0.0556,0.0541,0.0541,0.0529,0.0566,0.0564,0.0571,0.0472,0.0471,0.0471,0.047,0,0,0.0303,0.0353,0.0357,0.038,0.0407,0.0425,0.0446,0.0477,0.0505,0.0519,0.0567,0.0572,0.0583,0.0588,0.0584,0.0609,0.0652,0.0595,0.0596,0.06,0.0716,0.0691,0.0696,0.0667,0.0669,0.0671,0.0688,0,0.0323,0.0373,0.039,0.0432,0.046,0.047,0.0493,0.0518,0.0541,0.0588,0.0602,0.0644,0.0607,0.0629,0.0648,0.0666,0.0677,0.0646,0.0679,0.0679,0.0656,0.0706,0.0705,0.0721,0.0695,0.0697,0.0697,0,0.0347,0.0379,0.0426,0.0472,0.0484,0.0506,0.0549,0.0571,0.0624,0.0646,0.0688,0.0712,0.0757,0.0723,0.0762,0.0746,0.073,0.073,0.0731,0.0705,0.067,0.0684,0.0735,0.0757,0.0709,0.0708,0.0707,0,0.035,0.0404,0.0443,0.046,0.0509,0.0528,0.0548,0.0592,0.0629,0.0697,0.0753,0.0791,0.0841,0.0839,0.0827,0.0807,0.0866,0.084,0.0793,0.0789,0.0795,0.0789,0.0876,0.0862,0.0862,0.0862,0.0862,0,0.0371,0.0403,0.045,0.0474,0.0519,0.054,0.0594,0.0619,0.0686,0.0765,0.079,0.0873,0.0879,0.0913,0.087,0.0861,0.0899,0.0813,0.0808,0.0802,0.0797,0.0819,0.0816,0.0862,0.0862,0.0862,0.0862,0,0.0376,0.0408,0.0454,0.0506,0.0526,0.0554,0.0622,0.0671,0.0723,0.0836,0.0872,0.0958,0.1004,0.0979,0.0989,0.0932,0.0923,0.0886,0.0859,0.085,0.0819,0.0816,0.0877,0.0919,0.0851,0.085,0.085,0,0.039,0.0416,0.0474,0.0506,0.0533,0.0582,0.0627,0.0681,0.0751,0.0898,0.0971,0.1051,0.1122,0.1104,0.102,0.0941,0.0934,0.0879,0.0841,0.0837,0.0831,0.0825,0.0857,0.0849,0.0849,0.0849,0.0849,0,0.0414,0.0428,0.0466,0.0527,0.0579,0.0642,0.0718,0.0784,0.0881,0.099,0.114,0.1207,0.1194,0.1145,0.1024,0.096,0.0911,0.0871,0.0899,0.087,0.0842,0.0873,0.0791,0.0847,0.0847,0.0847,0.0848,0.0848,0.0427,0.0451,0.0498,0.0554,0.0617,0.0709,0.0777,0.0888,0.1016,0.119,0.1238,0.1323,0.1242,0.1089,0.1019,0.0897,0.0904,0.0857,0.086,0.086,0.0894,0.0788,0.0818,0.0818,0.0818,0.0818,0.0818,0,0.0445,0.0476,0.0529,0.0603,0.0673,0.0706,0.0847,0.094,0.1113,0.1232,0.1348,0.1324,0.1231,0.1109,0.095,0.0902,0.0898,0.0884,0.0898,0.0938,0.0876,0.0871,0.0876,0.0876,0.0876,0.0876,0.0876,0.0876,0.0458,0.0502,0.0528,0.0636,0.0696,0.0813,0.09,0.106,0.1165,0.1304,0.1325,0.1339,0.1277,0.1055,0.0959,0.0933,0.098,0.0926,0.0978,0.0938,0.0936,0.0935,0.0932,0.095,0.095,0.1057,0.1057,0.1058]}],[{"header":{"parameterUnit":"m.s-1","parameterCategory":2,"la1":30.2991,"la2":30.254,"lo1":-89.0895,"lo2":-89.0444,"dy":0.0017,"dx":0.0017,"nx":28,"ny":28,"refTime":"2024-08-03T03:00:00:Z","depth":"2","parameterNumber":2,"parameterNumberName":"U-component_of_CURRENTS"},"data":[0,0,0,0,0,0,0,0,0,0,0,0,0,0,0,0,0,0,0,0,0,0,0,0,0,0,0,0,0,0,0,0,0,0,0,0,0,0,0,0,0,0,0,0,0,0,0,0,0,0,0,0,0,0,0,0,0,0,0.1564,0.1564,0,0.1578,0.1578,0.1577,0.1613,0.1614,0.1615,0.1616,0.1636,0.1635,0.1635,0,0,0,0,0,0,0,0,0,0,0,0,0,0.1545,0.1545,0.1564,0.1564,0.1565,0.1578,0.1578,0.1577,0.1612,0.1614,0.1615,0.1617,0.1636,0.1636,0.1635,0,0,0,0,0,0,0,0,0,0,0,0,0,0.1551,0.1545,0.1564,0.1588,0.1591,0.1578,0.1578,0.1577,0.1612,0.1614,0.1616,0.1617,0.1636,0.1636,0.1635,0.1592,0,0,0.1632,0.1631,0,0,0,0,0,0,0,0,0.155,0.1551,0.1584,0.1586,0.1589,0.16,0.1579,0.1584,0.1612,0.1598,0.1616,0.1618,0.1627,0.1627,0.1618,0.1593,0.1594,0.1632,0.1631,0.1631,0.1631,0,0,0,0,0,0,0,0.155,0.155,0.1564,0.1584,0.1588,0.1591,0.1594,0.1579,0.1598,0.16,0.1604,0.1613,0.1628,0.1618,0.1618,0.1594,0.1632,0.1631,0.163,0.163,0.1658,0.1659,0,0,0,0,0,0,0.1558,0.155,0.1564,0.1565,0.158,0.1591,0.1593,0.159,0.1598,0.1603,0.1611,0.1615,0.1619,0.1619,0.1619,0.1656,0.1631,0.163,0.1629,0.1656,0.1658,0.1659,0,0,0,0,0,0,0.1557,0.1558,0.1563,0.1563,0.1564,0.159,0.1586,0.159,0.1604,0.1608,0.1612,0.1625,0.162,0.1621,0.1639,0.1654,0.163,0.1629,0.1655,0.1657,0.1659,0.1675,0,0,0,0,0,0,0.1556,0.1557,0.1565,0.1563,0.1565,0.157,0.1585,0.1589,0.1608,0.1613,0.162,0.1623,0.1622,0.164,0.1638,0.1653,0.1628,0.1653,0.1656,0.1658,0.1672,0.1677,0.1681,0,0,0,0,0,0.1555,0.156,0.1564,0.1567,0.1571,0.1571,0.1571,0.1592,0.1607,0.1611,0.1629,0.1624,0.1655,0.164,0.1637,0.1652,0.1652,0.1655,0.1658,0.1671,0.1676,0.168,0,0,0,0,0,0,0.1553,0.1564,0.1569,0.1577,0.158,0.1579,0.159,0.1598,0.1611,0.1627,0.1627,0.1631,0.1662,0.1652,0.1636,0.1671,0.1657,0.1659,0.1668,0.1672,0.1676,0.1707,0.1627,0,0,0,0,0,0.1555,0.1566,0.1568,0.1576,0.1578,0.1583,0.159,0.1603,0.1613,0.1621,0.1625,0.1641,0.1664,0.1666,0.1681,0.1678,0.169,0.1693,0.1697,0.17,0.1726,0.1762,0.1772,0.1669,0.1669,0.1669,0,0,0.1561,0.1567,0.1576,0.1578,0.1581,0.1584,0.1591,0.1606,0.1618,0.162,0.1636,0.1657,0.1673,0.1692,0.1703,0.1685,0.173,0.1704,0.1706,0.1731,0.1767,0.1777,0.1785,0.1671,0.167,0.167,0,0,0.1563,0.1576,0.1579,0.159,0.1604,0.16,0.1609,0.1612,0.1626,0.1646,0.1663,0.1704,0.1706,0.1731,0.1743,0.1777,0.1761,0.1768,0.1796,0.183,0.1839,0.1847,0.1846,0.1854,0.1756,0.1756,0.1756,0,0.1574,0.1568,0.158,0.1588,0.1599,0.1609,0.1611,0.1622,0.1635,0.1651,0.1665,0.1723,0.1739,0.1776,0.18,0.1788,0.1786,0.1769,0.1835,0.1844,0.1851,0.1849,0.1857,0.1757,0.1757,0.1757,0.1757,0,0.1568,0.1578,0.1582,0.1591,0.1603,0.1611,0.1627,0.1642,0.1665,0.1683,0.1739,0.177,0.1809,0.1817,0.1824,0.1878,0.185,0.1844,0.1819,0.1863,0.1857,0.1865,0.1759,0.1758,0.1758,0.1758,0,0,0.1565,0.1572,0.1584,0.16,0.1608,0.163,0.164,0.1657,0.1691,0.1726,0.1771,0.1833,0.186,0.188,0.1885,0.192,0.1973,0.1904,0.1905,0.1897,0.2018,0.1842,0.1834,0.1966,0.1968,0.197,0.198,0,0.1555,0.1558,0.1571,0.1604,0.1599,0.1632,0.1644,0.168,0.171,0.1758,0.1816,0.1872,0.1875,0.1908,0.1944,0.1987,0.2001,0.197,0.1984,0.1985,0.1819,0.1841,0.169,0.1672,0.1988,0.1989,0.199,0,0.1541,0.1544,0.1546,0.16,0.161,0.1639,0.1687,0.1712,0.1768,0.1799,0.1858,0.1898,0.1976,0.1974,0.2053,0.2025,0.2029,0.2048,0.2048,0.1892,0.1825,0.1688,0.1676,0.2005,0.2004,0.2003,0.2002,0,0.1519,0.155,0.155,0.1569,0.161,0.1643,0.1678,0.1722,0.1755,0.1835,0.1875,0.1951,0.2011,0.205,0.208,0.2077,0.2145,0.2141,0.1975,0.1961,0.1843,0.1814,0.2186,0.2186,0.2185,0.2185,0.2185,0,0.1499,0.153,0.155,0.1571,0.1608,0.1649,0.1711,0.1748,0.1802,0.1846,0.1905,0.1949,0.2038,0.2074,0.2091,0.2044,0.2147,0.199,0.1959,0.1837,0.1809,0.2114,0.2106,0.2186,0.2186,0.2186,0.2186,0,0.1486,0.1496,0.1516,0.1564,0.1594,0.1631,0.173,0.1755,0.1817,0.1873,0.1903,0.1977,0.2004,0.203,0.2093,0.2038,0.2029,0.1974,0.1798,0.1745,0.1821,0.1814,0.1814,0.1808,0.1803,0.1799,0.1795,0,0.1477,0.1468,0.1511,0.1538,0.1573,0.1642,0.1662,0.174,0.1778,0.1876,0.1896,0.1938,0.1914,0.1902,0.1842,0.1782,0.1885,0.1591,0.156,0.1816,0.1788,0.1788,0.1788,0.1414,0.1408,0.1403,0.1399,0,0.1462,0.1468,0.1491,0.1508,0.1549,0.16,0.1667,0.169,0.1769,0.1784,0.1807,0.1792,0.1748,0.1612,0.1509,0.1462,0.1589,0.1475,0.1826,0.1502,0.1432,0.1406,0.1421,0.1352,0.1357,0.136,0.1363,0.1365,0.1455,0.1451,0.1462,0.1487,0.1529,0.1551,0.1563,0.1603,0.1614,0.1603,0.1663,0.1554,0.1533,0.1275,0.1196,0.1117,0.1235,0.1185,0.1206,0.1231,0.1153,0.1075,0.0913,0.0915,0.0917,0.0918,0.092,0,0.1431,0.1433,0.1447,0.1457,0.1463,0.1514,0.1548,0.1502,0.145,0.1424,0.1378,0.1177,0.1027,0.1005,0.0805,0.0742,0.0788,0.0702,0.0792,0.0835,0.0874,0.0784,0.0444,0.0443,0.0442,0.0441,0,0,0.1422,0.1418,0.1403,0.1389,0.1402,0.1371,0.1372,0.1281,0.1247,0.1108,0.1012,0.1007,0.0987,0.075,0.0672,0.0542,0.0699,0.0493,0.087,0.1023,0.1063,0.1133,0.1038,0,0,0,0,0]},{"header":{"parameterUnit":"m.s-1","parameterCategory":2,"la1":30.2991,"la2":30.254,"lo1":-89.0895,"lo2":-89.0444,"dy":0.0017,"dx":0.0017,"nx":28,"ny":28,"refTime":"2024-08-03T03:00:00:Z","depth":"2","parameterNumber":3,"parameterNumberName":"V-component_of_CURRENTS"},"data":[0,0,0,0,0,0,0,0,0,0,0,0,0,0,0,0,0,0,0,0,0,0,0,0,0,0,0,0,0,0,0,0,0,0,0,0,0,0,0,0,0,0,0,0,0,0,0,0,0,0,0,0,0,0,0,0,0,0,0.0135,0.0135,0,0.0165,0.0165,0.0165,0.0176,0.0176,0.0176,0.0176,0.018,0.018,0.0181,0,0,0,0,0,0,0,0,0,0,0,0,0,0.0088,0.0088,0.0135,0.0135,0.0136,0.0165,0.0165,0.0165,0.0176,0.0176,0.0176,0.0176,0.018,0.018,0.0181,0,0,0,0,0,0,0,0,0,0,0,0,0,0.0112,0.0089,0.0135,0.0145,0.0146,0.0165,0.0165,0.0165,0.0176,0.0176,0.0176,0.0176,0.018,0.018,0.0181,0.0184,0,0,0.0181,0.0182,0,0,0,0,0,0,0,0,0.011,0.0113,0.0143,0.0144,0.0146,0.0167,0.015,0.0171,0.0176,0.0165,0.0176,0.0176,0.0174,0.0174,0.018,0.0185,0.0185,0.0181,0.0182,0.0182,0.0182,0,0,0,0,0,0,0,0.0108,0.0112,0.0146,0.0143,0.0145,0.0148,0.0151,0.0154,0.0169,0.0166,0.0167,0.017,0.0174,0.018,0.018,0.0185,0.0181,0.0182,0.0182,0.0182,0.0208,0.0209,0,0,0,0,0,0,0.0106,0.0111,0.0145,0.0147,0.0128,0.0149,0.0152,0.016,0.0169,0.0171,0.017,0.0171,0.018,0.018,0.0181,0.0201,0.0182,0.0182,0.0182,0.0208,0.0208,0.0209,0,0,0,0,0,0,0.0105,0.0109,0.0144,0.0129,0.0134,0.015,0.0158,0.0161,0.017,0.0173,0.0174,0.0177,0.018,0.018,0.0189,0.0201,0.0182,0.0182,0.0207,0.0208,0.0209,0.0232,0,0,0,0,0,0,0.0103,0.0108,0.0114,0.0129,0.0135,0.0161,0.0158,0.0161,0.0172,0.0173,0.0179,0.018,0.018,0.0188,0.0189,0.0201,0.0183,0.0206,0.0207,0.0208,0.0231,0.0234,0.0236,0,0,0,0,0,0.0101,0.011,0.0115,0.0119,0.0143,0.0161,0.0165,0.0175,0.0173,0.0181,0.0184,0.0179,0.0195,0.0189,0.019,0.0202,0.0206,0.0207,0.0208,0.0229,0.0233,0.0236,0,0,0,0,0,0,0.0092,0.0113,0.0118,0.0132,0.0148,0.0163,0.0173,0.0177,0.0187,0.0186,0.0185,0.0186,0.02,0.0196,0.019,0.0212,0.02,0.0202,0.0216,0.0219,0.0222,0.0241,0.0183,0,0,0,0,0,0.0093,0.0107,0.0125,0.0137,0.0145,0.0159,0.0167,0.0174,0.0184,0.0189,0.0192,0.0197,0.0206,0.0208,0.0215,0.0225,0.0231,0.0233,0.0236,0.0238,0.0254,0.0279,0.0285,0.0213,0.0213,0.0213,0,0,0.0093,0.0106,0.0114,0.0136,0.0149,0.0167,0.0164,0.018,0.0193,0.0187,0.0203,0.0207,0.0211,0.0226,0.0231,0.0224,0.0258,0.024,0.0242,0.0257,0.0281,0.0288,0.0294,0.0214,0.0213,0.0213,0,0,0.0103,0.0112,0.0129,0.0144,0.0165,0.0173,0.0178,0.0196,0.0202,0.0218,0.0218,0.0234,0.0239,0.0252,0.0257,0.0279,0.0273,0.0273,0.0302,0.0325,0.0331,0.0337,0.0336,0.0342,0.0273,0.0273,0.0273,0,0.0101,0.0128,0.0136,0.0158,0.0172,0.0177,0.0198,0.0206,0.0224,0.0236,0.0226,0.026,0.0258,0.029,0.0296,0.0288,0.029,0.0287,0.0329,0.0335,0.0341,0.0339,0.0345,0.0274,0.0274,0.0274,0.0274,0,0.0128,0.0149,0.016,0.0189,0.0203,0.0222,0.0234,0.0246,0.025,0.0266,0.0296,0.03,0.0326,0.0321,0.0314,0.0353,0.0337,0.0331,0.0322,0.035,0.0345,0.0351,0.0276,0.0276,0.0275,0.0275,0,0,0.0126,0.017,0.0175,0.0194,0.0222,0.0235,0.0256,0.0284,0.0312,0.0321,0.0364,0.0372,0.0384,0.0391,0.0386,0.04,0.0428,0.0382,0.0382,0.0383,0.0464,0.0435,0.0438,0.0429,0.043,0.0431,0.0438,0,0.0146,0.0191,0.0205,0.0243,0.0267,0.0278,0.0301,0.0325,0.0347,0.0388,0.0399,0.0439,0.0406,0.0428,0.0437,0.0445,0.0448,0.0426,0.0436,0.0436,0.041,0.0446,0.0426,0.043,0.0443,0.0444,0.0445,0,0.017,0.0198,0.024,0.0278,0.0289,0.0309,0.0353,0.0375,0.0427,0.045,0.0489,0.0508,0.0544,0.051,0.053,0.0517,0.0493,0.0484,0.0484,0.0459,0.042,0.0408,0.044,0.0454,0.0454,0.0453,0.0452,0,0.0172,0.0218,0.0251,0.0267,0.0312,0.033,0.0349,0.0398,0.0438,0.0501,0.0556,0.0583,0.0625,0.0606,0.0582,0.0565,0.0595,0.0569,0.0513,0.051,0.0498,0.0491,0.0576,0.0576,0.0576,0.0576,0.0576,0,0.0191,0.0218,0.0256,0.0279,0.032,0.034,0.0395,0.0424,0.0495,0.0576,0.0593,0.0668,0.0655,0.0671,0.0618,0.059,0.0623,0.0534,0.0522,0.0502,0.0496,0.0524,0.0517,0.0576,0.0576,0.0576,0.0576,0,0.0194,0.0223,0.0264,0.0311,0.0327,0.0355,0.0423,0.0474,0.0534,0.0646,0.0678,0.0751,0.0775,0.0734,0.0717,0.0653,0.0614,0.0583,0.0548,0.0532,0.0498,0.0493,0.0538,0.0538,0.0537,0.0537,0.0536,0,0.0204,0.0227,0.0282,0.0314,0.0338,0.0383,0.0429,0.0488,0.0564,0.0705,0.0777,0.0833,0.0875,0.0821,0.0729,0.0632,0.0615,0.0541,0.0506,0.0517,0.0501,0.0496,0.0492,0.0489,0.0489,0.0488,0.0487,0,0.0222,0.0239,0.0274,0.0339,0.0389,0.0446,0.0523,0.0594,0.0696,0.0793,0.0925,0.0961,0.0921,0.0831,0.0692,0.062,0.0556,0.0525,0.0575,0.0498,0.0471,0.0454,0.0452,0.0482,0.0483,0.0483,0.0483,0.0483,0.0234,0.0259,0.0311,0.037,0.0431,0.0521,0.0586,0.0693,0.0814,0.0965,0.0989,0.1014,0.0926,0.0733,0.063,0.0516,0.053,0.0464,0.0466,0.0469,0.0459,0.0432,0.0433,0.0433,0.0433,0.0433,0.0433,0,0.0253,0.0286,0.0342,0.0422,0.0492,0.0523,0.0662,0.0741,0.0896,0.0978,0.1047,0.0921,0.0814,0.0703,0.053,0.0434,0.0425,0.0392,0.04,0.0406,0.0411,0.0398,0.0355,0.0355,0.0354,0.0354,0,0,0.0269,0.0319,0.0346,0.046,0.0521,0.0631,0.0717,0.0844,0.0926,0.0996,0.0984,0.0953,0.0824,0.0677,0.0554,0.0456,0.0452,0.0431,0.0501,0.053,0.0537,0.0456,0.0442,0,0,0,0,0]}],[{"header":{"parameterUnit":"m.s-1","parameterCategory":2,"la1":30.2991,"la2":30.254,"lo1":-89.0895,"lo2":-89.0444,"dy":0.0017,"dx":0.0017,"nx":28,"ny":28,"refTime":"2024-08-03T03:00:00:Z","depth":"4","parameterNumber":2,"parameterNumberName":"U-component_of_CURRENTS"},"data":[0,0,0,0,0,0,0,0,0,0,0,0,0,0,0,0,0,0,0,0,0,0,0,0,0,0,0,0,0,0,0,0,0,0,0,0,0,0,0,0,0,0,0,0,0,0,0,0,0,0,0,0,0,0,0,0,0,0,0.0576,0.0576,0,0.0604,0.0604,0.0605,0.0631,0.0631,0.0631,0.0631,0.0679,0.068,0.0681,0,0,0,0,0,0,0,0,0,0,0,0,0,0.0577,0.0577,0.0576,0.0576,0.0577,0.0604,0.0604,0.0605,0.0631,0.0631,0.0631,0.0631,0.0678,0.068,0.0681,0,0,0,0,0,0,0,0,0,0,0,0,0,0.0589,0.0577,0.0576,0.0592,0.0594,0.0604,0.0605,0.0605,0.0631,0.0631,0.0631,0.0632,0.0678,0.068,0.0681,0.0684,0,0,0.0686,0.0687,0,0,0,0,0,0,0,0,0.0588,0.0589,0.059,0.0591,0.0593,0.0613,0.0622,0.0632,0.063,0.0618,0.0631,0.0632,0.0658,0.0661,0.0667,0.0686,0.0688,0.0686,0.0687,0.0688,0.0688,0,0,0,0,0,0,0,0.0587,0.0588,0.0588,0.059,0.0592,0.0609,0.0611,0.0624,0.0636,0.0619,0.062,0.0622,0.0659,0.0665,0.0668,0.0689,0.0686,0.0687,0.0688,0.0689,0.0755,0.0756,0,0,0,0,0,0,0.058,0.0587,0.0587,0.0589,0.059,0.0608,0.061,0.0607,0.0636,0.064,0.0622,0.0623,0.0662,0.0666,0.067,0.0706,0.0688,0.0689,0.069,0.0754,0.0755,0.0756,0,0,0,0,0,0,0.0579,0.0579,0.0586,0.0588,0.059,0.0608,0.0604,0.0608,0.0635,0.0638,0.0643,0.0648,0.0663,0.0668,0.0687,0.0707,0.069,0.0691,0.0753,0.0754,0.0755,0.0759,0,0,0,0,0,0,0.0579,0.0579,0.0586,0.0587,0.059,0.06,0.0604,0.0608,0.0634,0.0636,0.0661,0.0665,0.0663,0.0685,0.0689,0.0709,0.0692,0.0752,0.0754,0.0755,0.0758,0.0761,0.0763,0,0,0,0,0,0.0579,0.0576,0.0586,0.0587,0.0595,0.06,0.0604,0.0618,0.0635,0.0645,0.0658,0.0665,0.0698,0.0686,0.0691,0.0712,0.0751,0.0753,0.0755,0.0757,0.076,0.0763,0,0,0,0,0,0,0.0581,0.0578,0.059,0.0587,0.0601,0.0605,0.0614,0.0632,0.0652,0.066,0.0669,0.0673,0.0702,0.0706,0.0694,0.0737,0.0729,0.0732,0.0729,0.0732,0.0734,0.0756,0.0694,0,0,0,0,0,0.0585,0.0583,0.0589,0.0592,0.0596,0.0615,0.0625,0.0637,0.0649,0.066,0.0679,0.0698,0.071,0.072,0.0734,0.0753,0.0771,0.0773,0.0775,0.0777,0.0799,0.0854,0.0864,0.0762,0.0762,0.0762,0,0,0.0584,0.0587,0.0585,0.0594,0.0604,0.0608,0.0622,0.0639,0.0644,0.0661,0.0685,0.071,0.0718,0.0738,0.0752,0.0745,0.0805,0.0779,0.0781,0.0802,0.0857,0.0867,0.0876,0.0763,0.0763,0.0763,0,0,0.0579,0.0587,0.0585,0.0595,0.0614,0.0619,0.063,0.0652,0.0662,0.0686,0.07,0.0741,0.0759,0.0773,0.0778,0.0805,0.0818,0.0811,0.0837,0.089,0.0899,0.0907,0.0897,0.0905,0.0809,0.0809,0.0809,0,0.0589,0.0578,0.0588,0.0594,0.0597,0.0626,0.0627,0.0637,0.0668,0.0688,0.0695,0.0762,0.0776,0.0802,0.0815,0.0812,0.0827,0.0821,0.0893,0.0902,0.0911,0.0899,0.0908,0.0809,0.0809,0.0809,0.0809,0,0.058,0.0578,0.0577,0.0588,0.0598,0.0603,0.0614,0.0646,0.0674,0.0694,0.0746,0.0772,0.082,0.0827,0.0831,0.0897,0.0879,0.0891,0.0886,0.0922,0.0906,0.0915,0.081,0.0809,0.0809,0.0809,0,0,0.0577,0.0571,0.0572,0.0566,0.0593,0.059,0.0618,0.0642,0.0673,0.0717,0.0765,0.0802,0.0852,0.0864,0.0882,0.0931,0.0991,0.0945,0.0947,0.0933,0.1072,0.0945,0.0941,0.1023,0.1026,0.1028,0.102,0,0.057,0.0563,0.0564,0.0554,0.0547,0.0581,0.0591,0.0629,0.0679,0.0737,0.0786,0.0838,0.0846,0.0891,0.0941,0.0988,0.1023,0.099,0.1043,0.1043,0.0926,0.0951,0.1036,0.1026,0.1028,0.103,0.1031,0,0.0554,0.0553,0.0547,0.0525,0.0524,0.0532,0.0581,0.0583,0.0673,0.074,0.0827,0.0872,0.0947,0.0964,0.1047,0.1028,0.1064,0.109,0.109,0.0986,0.0935,0.0996,0.1047,0.1045,0.1044,0.1043,0.1042,0,0.0538,0.0521,0.0514,0.0515,0.0519,0.0533,0.0525,0.0599,0.0631,0.0756,0.0845,0.0915,0.0984,0.1039,0.1099,0.1088,0.119,0.117,0.1074,0.1063,0.1177,0.1169,0.1251,0.1251,0.1251,0.1251,0.1251,0,0.0514,0.0498,0.0507,0.0509,0.0493,0.0496,0.0507,0.0561,0.0663,0.0719,0.0834,0.0912,0.1024,0.1088,0.1116,0.111,0.1198,0.1085,0.1068,0.117,0.1162,0.118,0.1172,0.125,0.1251,0.1251,0.1251,0,0.0485,0.0497,0.0485,0.0495,0.0489,0.0473,0.0484,0.0512,0.0626,0.0727,0.0781,0.094,0.0998,0.1068,0.1159,0.1121,0.1135,0.1122,0.12,0.1186,0.0955,0.0947,0.0974,0.097,0.0966,0.0963,0.0961,0,0.0464,0.0466,0.0473,0.0472,0.0475,0.0451,0.0447,0.051,0.0547,0.0718,0.0762,0.0887,0.0968,0.0987,0.1049,0.1057,0.1062,0.1048,0.1024,0.0954,0.0935,0.0933,0.093,0.0955,0.0954,0.0953,0.0952,0,0.0425,0.0448,0.0446,0.0452,0.045,0.0407,0.0394,0.0439,0.0519,0.0647,0.0757,0.0819,0.0877,0.0911,0.0949,0.0954,0.1038,0.1011,0.1017,0.0994,0.0931,0.0915,0.0917,0.094,0.0942,0.0943,0.0944,0,0.0405,0.0396,0.0414,0.0409,0.0401,0.0364,0.0355,0.0379,0.0423,0.0622,0.0638,0.0773,0.0871,0.0856,0.0876,0.0878,0.0844,0.0815,0.0832,0.0846,0.0806,0.0707,0.0639,0,0,0,0,0,0.0374,0.0358,0.0357,0.0342,0.0338,0.0324,0.0324,0.0332,0.0427,0.0491,0.0574,0.0627,0.0691,0.0729,0.0699,0.0757,0.0818,0.0712,0.0786,0.0872,0.0886,0.0849,0,0,0,0,0,0,0.0353,0.0345,0.0341,0.0288,0.0276,0.0241,0.0245,0.0307,0.0313,0.0445,0.0472,0.0571,0.0618,0.0723,0.0694,0.0699,0.0722,0.0772,0.0769,0.0863,0.0876,0.0888,0.0855,0,0,0,0,0]},{"header":{"parameterUnit":"m.s-1","parameterCategory":2,"la1":30.2991,"la2":30.254,"lo1":-89.0895,"lo2":-89.0444,"dy":0.0017,"dx":0.0017,"nx":28,"ny":28,"refTime":"2024-08-03T03:00:00:Z","depth":"4","parameterNumber":3,"parameterNumberName":"V-component_of_CURRENTS"},"data":[0,0,0,0,0,0,0,0,0,0,0,0,0,0,0,0,0,0,0,0,0,0,0,0,0,0,0,0,0,0,0,0,0,0,0,0,0,0,0,0,0,0,0,0,0,0,0,0,0,0,0,0,0,0,0,0,0,0,0.0107,0.0107,0,0.0126,0.0126,0.0126,0.0136,0.0136,0.0136,0.0136,0.0152,0.0153,0.0153,0,0,0,0,0,0,0,0,0,0,0,0,0,0.0072,0.0072,0.0107,0.0107,0.0108,0.0125,0.0126,0.0126,0.0136,0.0136,0.0136,0.0136,0.0152,0.0153,0.0153,0,0,0,0,0,0,0,0,0,0,0,0,0,0.0087,0.0072,0.0107,0.0116,0.0117,0.0125,0.0126,0.0126,0.0136,0.0136,0.0136,0.0137,0.0152,0.0153,0.0153,0.0152,0,0,0.0155,0.0155,0,0,0,0,0,0,0,0,0.0086,0.0088,0.0114,0.0115,0.0116,0.013,0.0119,0.0135,0.0136,0.0128,0.0136,0.0137,0.0145,0.0146,0.0148,0.0153,0.0154,0.0155,0.0155,0.0155,0.0155,0,0,0,0,0,0,0,0.0085,0.0088,0.0113,0.0114,0.0116,0.0116,0.0118,0.0122,0.0134,0.0128,0.0129,0.0133,0.0146,0.0147,0.0148,0.0154,0.0155,0.0155,0.0155,0.0156,0.0174,0.0174,0,0,0,0,0,0,0.0085,0.0087,0.0113,0.0114,0.0103,0.0116,0.0119,0.0124,0.0134,0.0136,0.0133,0.0133,0.0146,0.0148,0.0149,0.017,0.0155,0.0156,0.0156,0.0174,0.0174,0.0174,0,0,0,0,0,0,0.0085,0.0088,0.0112,0.0101,0.0105,0.0117,0.0123,0.0125,0.013,0.0138,0.014,0.0137,0.0147,0.0148,0.0161,0.017,0.0156,0.0156,0.0174,0.0174,0.0174,0.0199,0,0,0,0,0,0,0.0083,0.0087,0.0091,0.0101,0.0105,0.0124,0.0123,0.0125,0.0132,0.0133,0.0142,0.0143,0.0147,0.016,0.0161,0.017,0.0157,0.0173,0.0174,0.0174,0.0197,0.02,0.0202,0,0,0,0,0,0.0082,0.0092,0.0091,0.0095,0.0111,0.0125,0.0127,0.0135,0.0132,0.0139,0.0145,0.0143,0.0163,0.0161,0.0162,0.0172,0.0173,0.0174,0.0174,0.0197,0.0199,0.0201,0,0,0,0,0,0,0.008,0.0094,0.0094,0.0107,0.0117,0.0127,0.0135,0.0136,0.0145,0.0145,0.0148,0.0151,0.0163,0.0162,0.016,0.0177,0.0167,0.0168,0.0183,0.0186,0.0188,0.0196,0.0157,0,0,0,0,0,0.008,0.009,0.0101,0.0111,0.0118,0.0124,0.013,0.0134,0.0143,0.0147,0.0154,0.0158,0.0165,0.0172,0.0176,0.0188,0.0179,0.0193,0.0195,0.0197,0.0204,0.0199,0.0201,0.0176,0.0176,0.0176,0,0,0.0081,0.009,0.0095,0.0111,0.0119,0.0133,0.0129,0.014,0.0153,0.0147,0.0166,0.0165,0.0168,0.0183,0.0188,0.0185,0.0197,0.0198,0.0199,0.0205,0.02,0.0202,0.0204,0.0176,0.0176,0.0176,0,0,0.0091,0.0097,0.011,0.0119,0.0132,0.0139,0.0143,0.0155,0.0162,0.0176,0.0175,0.0181,0.0192,0.02,0.0203,0.0218,0.0205,0.0216,0.0238,0.0233,0.0236,0.0237,0.0219,0.022,0.022,0.022,0.0221,0,0.0089,0.011,0.0115,0.013,0.0143,0.0143,0.0162,0.0169,0.0183,0.0195,0.0186,0.0203,0.0202,0.0223,0.0228,0.0224,0.0214,0.023,0.0237,0.0238,0.024,0.0221,0.0221,0.0222,0.0222,0.0221,0.0221,0,0.011,0.0127,0.0137,0.0157,0.017,0.0186,0.0198,0.0209,0.0213,0.0223,0.024,0.0236,0.0249,0.0245,0.0242,0.0256,0.0241,0.0237,0.0232,0.0244,0.0223,0.0222,0.0223,0.0223,0.0223,0.0222,0,0,0.0107,0.0144,0.0148,0.017,0.0187,0.0205,0.0223,0.025,0.0272,0.0272,0.0295,0.0299,0.0294,0.0297,0.0289,0.0285,0.0279,0.0268,0.0267,0.0252,0.0259,0.0241,0.0238,0.0275,0.0276,0.0276,0.0236,0,0.0123,0.0161,0.0175,0.0216,0.0239,0.025,0.0268,0.0289,0.0306,0.0326,0.0318,0.0335,0.0315,0.032,0.0312,0.0287,0.028,0.0289,0.0248,0.0246,0.0231,0.0238,0.0277,0.0236,0.0236,0.0236,0.0235,0,0.0139,0.0167,0.0206,0.0255,0.0267,0.029,0.0333,0.0356,0.0377,0.0383,0.0393,0.0387,0.0381,0.0358,0.0324,0.033,0.03,0.0276,0.0274,0.0251,0.0228,0.0223,0.0234,0.0234,0.0234,0.0234,0.0234,0,0.0142,0.0193,0.0229,0.0243,0.0289,0.0315,0.0347,0.0377,0.041,0.0428,0.044,0.0429,0.0424,0.0385,0.0334,0.033,0.0288,0.0275,0.023,0.0227,0.0245,0.0243,0.0256,0.0256,0.0256,0.0256,0.0256,0,0.0155,0.0188,0.0237,0.0259,0.0308,0.0338,0.0401,0.0416,0.0455,0.049,0.0477,0.0479,0.0432,0.0401,0.0347,0.0284,0.0297,0.0236,0.0221,0.0253,0.0254,0.0243,0.0242,0.0255,0.0255,0.0255,0.0255,0,0.0151,0.0179,0.0227,0.0286,0.0311,0.035,0.0439,0.0487,0.0505,0.0546,0.055,0.0525,0.047,0.0418,0.0351,0.0305,0.0245,0.0222,0.0256,0.0243,0.018,0.0181,0.0162,0.0161,0.016,0.016,0.0159,0,0.0154,0.0174,0.0243,0.028,0.0313,0.0387,0.0441,0.0499,0.0544,0.0565,0.0571,0.054,0.0509,0.0397,0.0334,0.0235,0.0222,0.0194,0.0191,0.0186,0.0173,0.0175,0.0177,0.0158,0.0158,0.0158,0.0158,0,0.0162,0.0179,0.0219,0.0286,0.0352,0.0429,0.0506,0.0538,0.0594,0.0613,0.0586,0.0534,0.0472,0.0382,0.0316,0.0242,0.0212,0.0186,0.0186,0.0184,0.0181,0.0169,0.0172,0.0155,0.0155,0.0156,0.0156,0,0.0165,0.0188,0.0236,0.03,0.0374,0.0443,0.0494,0.0546,0.0589,0.0606,0.059,0.0525,0.0495,0.0384,0.0315,0.025,0.0225,0.0204,0.0203,0.0205,0.0229,0.0232,0.0213,0,0,0,0,0,0.017,0.0202,0.0256,0.0325,0.0394,0.044,0.0522,0.0567,0.0615,0.0598,0.0598,0.0533,0.0427,0.0377,0.0306,0.0294,0.0213,0.0208,0.0188,0.0141,0.0144,0.0163,0,0,0,0,0,0,0.0177,0.0221,0.0251,0.0332,0.0381,0.0466,0.0519,0.0555,0.0544,0.0567,0.0508,0.0502,0.0394,0.0459,0.0295,0.0277,0.0253,0.0165,0.0164,0.0139,0.0142,0.0144,0.0165,0,0,0,0,0]}]]